Quantico, VA

3:14 PM EDT on October 17, 2019 (GMT -0400)
Quantico Marine Corps Air Facility

Weather History for KNYG - September, 2019

Change the Weather History Date:

Friday, September 20, 2019

  Actual Average Record
Temperature  
Mean Temperature 66 °F -  
Max Temperature 79 °F 74 °F 91 °F (2005)
Min Temperature 54 °F 57 °F 50 °F (2004)
Cooling Degree Days 2    
Growing Degree Days 16 (Base 50)    
Moisture  
Dew Point 54 °F    
Average Humidity 67    
Maximum Humidity 90    
Minimum Humidity 42    
Precipitation  
Precipitation 0.00 in - - ()
Sea Level Pressure  
Sea Level Pressure 30.28 in    
Wind  
Wind Speed 7 mph (WSW)    
Max Wind Speed 13 mph    
Max Gust Speed -    
Visibility 10 miles    
Events      
Averages and records for this station are not official NWS values.
T = Trace of Precipitation, MM = Missing Value Source: NWS Daily Summary

Daily Weather History Graph

Daily Weather History Graph

Search for Another Location

Airport or City:

Astronomy

Sep. 20, 2019 Rise Set
Actual Time 6:55 AM EDT 7:09 PM EDT
Civil Twilight 6:28 AM EDT 7:36 PM EDT
Nautical Twilight 5:57 AM EDT 8:07 PM EDT
Astronomical Twilight 5:25 AM EDT 8:38 PM EDT
Moon 11:02 PM EDT (9/20) 12:53 PM EDT (9/20)
Length of Visible Light 13h 07m
Length of Day
12h 14m
Waning Gibbous, 65% of the Moon is Illuminated
Sep 20
Waning Gibbous
Sep 21
Last Quarter
Sep 28
New
Oct 5
First Quarter
Oct 13
Full

Hourly Weather History & Observations

Time (EDT) Temp. Dew Point Humidity Pressure Visibility Wind Dir Wind Speed Gust Speed Precip Events Conditions
12:56 AM 57.0 °F 53.1 °F 87% 30.30 in 10.0 mi WNW 8.1 mph - N/A   Clear
1:56 AM 55.9 °F 52.0 °F 87% 30.31 in 10.0 mi WNW 6.9 mph - N/A   Clear
2:56 AM 55.0 °F 51.1 °F 86% 30.31 in 10.0 mi WNW 8.1 mph - N/A   Clear
3:56 AM 54.0 °F 50.0 °F 86% 30.31 in 10.0 mi WNW 6.9 mph - N/A   Clear
4:56 AM 54.0 °F 50.0 °F 86% 30.31 in 10.0 mi WNW 4.6 mph - N/A   Clear
5:56 AM 54.0 °F 48.9 °F 83% 30.32 in 10.0 mi WNW 5.8 mph - N/A   Clear
6:56 AM 54.0 °F 50.0 °F 86% 30.33 in 10.0 mi WNW 5.8 mph - N/A   Partly Cloudy
7:56 AM 54.0 °F 51.1 °F 90% 30.34 in 10.0 mi WNW 5.8 mph - N/A   Partly Cloudy
8:56 AM 61.0 °F 53.1 °F 75% 30.35 in 10.0 mi Calm Calm - N/A   Partly Cloudy
9:56 AM 66.9 °F 52.0 °F 59% 30.35 in 10.0 mi Variable 5.8 mph - N/A   Partly Cloudy
10:56 AM 70.0 °F 55.0 °F 59% 30.33 in 10.0 mi South 8.1 mph - N/A   Scattered Clouds
11:56 AM 73.0 °F 55.9 °F 55% 30.31 in 10.0 mi South 10.4 mph - N/A   Scattered Clouds
12:56 PM 73.9 °F 55.0 °F 52% 30.30 in 10.0 mi SSE 9.2 mph - N/A   Scattered Clouds
1:56 PM 75.9 °F 55.0 °F 48% 30.27 in 10.0 mi South 9.2 mph - N/A   Scattered Clouds
2:56 PM 78.1 °F 54.0 °F 43% 30.24 in 10.0 mi South 11.5 mph - N/A   Scattered Clouds
3:56 PM 79.0 °F 54.0 °F 42% 30.22 in 10.0 mi South 12.7 mph - N/A   Clear
4:56 PM 79.0 °F 54.0 °F 42% 30.22 in 10.0 mi South 9.2 mph - N/A   Clear
5:56 PM 79.0 °F 55.0 °F 44% 30.22 in 10.0 mi South 11.5 mph - N/A   Clear
6:56 PM 77.0 °F 55.0 °F 47% 30.22 in 10.0 mi SSW 9.2 mph - N/A   Clear
7:56 PM 73.9 °F 55.9 °F 53% 30.23 in 10.0 mi WSW 3.5 mph - N/A   Clear
8:56 PM 72.0 °F 59.0 °F 64% 30.24 in 10.0 mi South 4.6 mph - N/A   Clear
9:56 PM 64.9 °F 59.0 °F 81% 30.25 in 10.0 mi NW 3.5 mph - N/A   Clear
10:56 PM 64.9 °F 59.0 °F 81% 30.25 in 10.0 mi WNW 3.5 mph - N/A   Clear
11:56 PM 63.0 °F 57.9 °F 84% 30.25 in 10.0 mi WNW 4.6 mph - N/A   Clear